Location: D�derode
(51.8092°N, 10.1065°E)
Time: 06:29:09
(UTC+00:00)

Cosmos 1624 Rocket - Pass Details

Date: 01 December 2020
Orbit: 758 x 783 km, 74.0° (Epoch: 23 January)

Event Time Altitude Azimuth Distance (km) Brightness Sun altitude
Rises 18:18:45 0° 333° (NNW) 3,274 7.6 -27.8°
Reaches altitude 10° 18:21:09 10° 332° (NNW) 2,339 6.8 -28.1°
Enters shadow 18:26:04 71° 287° (WNW) 823 4.2 -28.9°
